Location: Alphen
(52.1351°N, 4.6549°E)
Time: 01:20:31
(UTC+00:00)

Cosmos 1072 Rocket - Pass Details

Date: 27 January 2021
Orbit: 949 x 1008 km, 82.9° (Epoch: 27 February)

Event Time Altitude Azimuth Distance (km) Brightness Sun altitude
Exits shadow 04:22:08 43° 186° (S) 1,357 5.1 -28.5°
Maximum altitude 04:24:25 88° 98° (E) 997 4.4 -28.1°
Drops below altitude 10° 04:30:49 10° 11° (N) 2,780 7.0 -27.2°
Sets 04:33:22 0° 11° (N) 3,739 7.7 -26.8°
